Stove Prairie

Current Conditions

Time06/19/2019 03:15 AM MST
Location40.619167,-105.356944
Elevation7,349 FT
Air Temp49°F
Surface Temp50°F
Dew Point Temp38°F
Relative Humidity65%
Visibility6,562 FT
Pressure776 MB
PrecipitationNone

Click a photo to enlarge.

355°5 mph
Wind from @ 5 mph

Past 24 Hours

All Data

Previous 24h observations for Stove Prairie
Time Air Temp
(°F)
Surface
(°F)
Dew Point
(°F)
Relative
Humidity
Precip. Wind Direction Wind Speed (mph) Visibility (ft) Pressure
(mb)
03:15 AM49503865NoneN56,562776
03:00 AM50503762NoneNNW46,562776
02:45 AM51493760NoneN46,562776
02:30 AM53493756NoneNNW56,562776
02:15 AM55503648NoneN56,562776
02:00 AM56553646NoneNNW86,562776
01:45 AM54533651NoneN46,562776
01:30 AM54523650NoneN56,562776
01:15 AM54513651NoneNNW46,562776
01:00 AM55503648NoneNNW46,562776
12:45 AM55533648NoneNW86,562776
12:30 AM54513650NoneNNW26,562776
12:15 AM54523550NoneNW36,562776
12:00 AM53553651NoneNNW46,562776
11:45 PM51493555NoneN46,562777
11:30 PM50513659NoneN26,562777
11:15 PM48533664NoneN36,562777
11:00 PM50513660NoneN36,562777
10:45 PM50543557NoneENE26,562777
10:30 PM48513866NoneN26,562777
10:15 PM47533869NoneNNW26,562777
10:00 PM48533869NoneN26,562777
09:45 PM48513970NoneN06,562777
09:30 PM48514072NoneSW26,562777
09:15 PM50493966NoneS26,562777
09:00 PM53533858NoneNNW26,562777
08:45 PM53523754NoneNNW46,562777
08:30 PM54523752NoneNNW46,562777
08:15 PM56563647NoneNW96,562777
08:00 PM54603651NoneNW76,562776
07:45 PM54613955NoneNW56,562777
07:30 PM50614377NoneSE26,562777
07:15 PM49614276NoneESE26,562777
07:00 PM48624175Light RainNW26,562778
06:45 PM48584178Light RainN76,562778
06:30 PM52574783Heavy RainN76,562778
06:15 PM54614879NoneSSW26,562777
06:00 PM56634568NoneN06,562777
05:45 PM55664775NoneSE26,562777
05:30 PM54644366NoneNE66,562777
05:15 PM58654359NoneNNE116,562777
05:00 PM57654563NoneN36,562776
04:45 PM56664463NoneN36,562776
04:30 PM56664567NoneNNW56,562776
04:15 PM56664566NoneNNW46,562777
04:00 PM55654467NoneN46,562777
03:45 PM54654265NoneNNE86,562777
03:30 PM53684370NoneN36,562777
03:15 PM51674476Light RainNNW56,562778
03:00 PM48614383Light RainNNW66,562778
02:45 PM49604277Medium RainNE66,562778
02:30 PM52674784Light RainNNW56,562778
02:15 PM52674782Heavy RainS86,562777
02:00 PM53744885NoneS96,562777
01:45 PM53784780NoneSSE116,562777
01:30 PM53754884NoneS106,562777
01:15 PM51644889Light RainS106,562778
01:00 PM51674785NoneS126,562778
12:45 PM52664885NoneS136,562778
12:30 PM54755088NoneS86,562778
12:15 PM52674886NoneS106,562778
12:00 PM52624888NoneS96,562778
11:45 AM52594786Medium RainSE96,562778
11:30 AM53624886NoneS96,562778
11:15 AM53664883NoneS56,562778
11:00 AM53644781Light RainSSE56,562778
10:45 AM53634884Light RainSSE56,562778
10:30 AM53644472Light RainNE46,562778
10:15 AM54704778NoneS76,562778
10:00 AM54704778NoneS86,562778
09:45 AM55674671NoneNW16,562778
09:30 AM54644571NoneN36,562778
09:15 AM54644470NoneN46,562778
09:00 AM53634676NoneN46,562778
08:45 AM52614781NoneN36,562778
08:30 AM52604681NoneNNW36,562778
08:15 AM51584683NoneNNW46,562778
08:00 AM51584683NoneN36,562778
07:45 AM51574684NoneN36,562778
07:30 AM50574685NoneN36,562778
07:15 AM50574686NoneN36,562778
07:00 AM49564586NoneNE26,562778
06:45 AM49554586NoneESE16,562778
06:30 AM48544589NoneN06,562778
06:15 AM47534590NoneSSE16,562778
06:00 AM47534590NoneS26,562778
05:45 AM47534489NoneN06,562778
05:30 AM47534490NoneN06,562778
05:15 AM47534490NoneN06,562778
05:00 AM47534489NoneN06,562778
04:45 AM47524489NoneNNW26,562778
04:30 AM47534490NoneNNW26,562778
04:15 AM47534489NoneNNE36,562778
04:00 AM47534490NoneN16,562778
03:45 AM47534491NoneN26,562778
03:30 AM47534490NoneNE16,562778

Red Feather Lakes

Current Conditions

Time06/19/2019 03:15 AM MST
Location40.790278,-105.574167
Elevation8,238 FT
Air Temp46°F
Surface Temp49°F
Dew Point Temp38°F
Relative Humidity74%
Visibility6,562 FT
Pressure751 MB
PrecipitationLight Rain

Click a photo to enlarge.

356°11 mph
Wind from @ 11 mph

Past 24 Hours

All Data

Previous 24h observations for Red Feather Lakes
Time Air Temp
(°F)
Surface
(°F)
Dew Point
(°F)
Relative
Humidity
Precip. Wind Direction Wind Speed (mph) Visibility (ft) Pressure
(mb)
03:15 AM46493874Light RainN116,562751
03:00 AM46503770NoneNNE96,562751
02:45 AM47493770NoneNNE116,562751
02:30 AM47483666NoneN76,562751
02:15 AM47473766NoneNNE96,562751
02:00 AM50503557NoneNW86,562751
01:45 AM49493660NoneWNW126,562751
01:30 AM49483661NoneW96,562751
01:15 AM50483659Light RainWNW146,562751
01:00 AM50513556NoneWNW96,562751
12:45 AM49493559NoneWNW86,562751
12:30 AM48493560NoneWNW96,562752
12:15 AM47493563NoneW146,562752
12:00 AM47483663NoneW176,562752
11:45 PM49483560NoneW176,562752
11:30 PM49493558NoneWNW166,562752
11:15 PM49503557NoneWNW146,562752
11:00 PM49513559NoneWNW96,562752
10:45 PM49493559NoneW116,562752
10:30 PM49503557NoneWNW126,562752
10:15 PM49513456NoneWNW126,562752
10:00 PM49493457NoneWNW106,562752
09:45 PM49523456NoneWNW116,562752
09:30 PM49523456NoneWNW126,562752
09:15 PM48523560NoneWNW126,562752
09:00 PM48513661NoneWNW126,562752
08:45 PM49533559NoneWNW156,562752
08:30 PM49533660NoneNW76,562752
08:15 PM49513660NoneW116,562752
08:00 PM49533661NoneWNW116,562752
07:45 PM49543763NoneW106,562752
07:30 PM50573864NoneW116,562752
07:15 PM48613869NoneN46,562751
07:00 PM47613973NoneN06,562752
06:45 PM46603876NoneW66,562752
06:30 PM44593881Light RainNW86,562753
06:15 PM43553882Light RainN126,562753
06:00 PM53614062Light RainNW176,562753
05:45 PM53654473NoneNNW46,562752
05:30 PM51654374NoneNNE66,562752
05:15 PM52704167NoneNW56,562752
05:00 PM50694378Light RainNNW76,562752
04:45 PM51594269Light RainNNW166,562752
04:30 PM56764054NoneNW126,562752
04:15 PM56774057NoneWNW146,562752
04:00 PM54684059NoneNW56,562752
03:45 PM53673960NoneWNW36,562752
03:30 PM52674064NoneW56,562752
03:15 PM51704067NoneW86,562752
03:00 PM48673971Light RainW76,562752
02:45 PM47633975Light RainWNW106,562753
02:30 PM48663972Light RainNW196,562753
02:15 PM49754175NoneNNW136,562753
02:00 PM50724069Light RainNNW176,562752
01:45 PM53793958NoneNNW156,562752
01:30 PM58873848NoneW96,562752
01:15 PM57913951NoneENE56,562752
01:00 PM58993847NoneNW86,562752
12:45 PM58973949NoneW116,562752
12:30 PM57894053NoneNW56,562753
12:15 PM56784055NoneNW106,562753
12:00 PM55704057NoneNW106,562753
11:45 AM54704263NoneW76,562753
11:30 AM52684065NoneNW86,562753
11:15 AM54694060Light RainNW146,562753
11:00 AM55764057NoneNNW106,562753
10:45 AM55654057NoneNNW86,562753
10:30 AM55694058NoneNNW36,562753
10:15 AM55694262NoneNW46,562753
10:00 AM54694059NoneWNW96,562753
09:45 AM55664161NoneNW76,562753
09:30 AM55654262NoneNNW46,562753
09:15 AM54664367NoneNNE36,562753
09:00 AM54654469NoneS26,562753
08:45 AM52624576NoneSSE36,562753
08:30 AM51604477NoneSSW26,562753
08:15 AM50594480NoneWSW26,562753
08:00 AM49574381NoneWNW26,562753
07:45 AM48554383NoneWSW26,562753
07:30 AM47544283NoneNW26,562753
07:15 AM47554284NoneWSW36,562753
07:00 AM47534285NoneW26,562753
06:45 AM46534286NoneWSW26,562753
06:30 AM46524287NoneW26,562753
06:15 AM45514289NoneWSW16,562753
06:00 AM46514287NoneSSW16,562753
05:45 AM46524288NoneN06,562753
05:30 AM46524287NoneSSW16,562753
05:15 AM45524287NoneSW16,562753
05:00 AM45524287NoneN06,562753
04:45 AM45514288NoneW26,562753
04:30 AM45514287NoneSW36,562753
04:15 AM45514187NoneW36,562753
04:00 AM45514187NoneW56,562753
03:45 AM45524288NoneW46,562753
03:30 AM45524186NoneW56,562753

Pinewood Reservoir

Current Conditions

Time06/19/2019 03:15 AM MST
Location40.3647,-105.2867
Elevation6,580 FT
Air Temp57°F
Surface Temp56°F
Dew Point Temp38°F
Relative Humidity49%
Visibility6,562 FT
Pressure791 MB
PrecipitationNone
Level of Grip82.0
State of Surface4.0

Click a photo to enlarge.

279°5 mph
Wind from @ 5 mph

Past 24 Hours

All Data

Previous 24h observations for Pinewood Reservoir
Time Air Temp
(°F)
Surface
(°F)
Dew Point
(°F)
Relative
Humidity
Precip. Wind Direction Wind Speed (mph) Visibility (ft) Pressure
(mb)
Level of GripState Surface
03:15 AM57563849NoneW56,562791824
03:00 AM57563849NoneW106,562791824
02:45 AM57563849NoneWSW126,562791824
02:30 AM58573949NoneWSW166,562791824
02:15 AM58573848NoneW106,562792824
02:00 AM58563949NoneWSW136,562792824
01:45 AM57563850NoneW136,562792824
01:30 AM57563950NoneW136,562792824
01:15 AM57553951NoneW136,562792824
01:00 AM58563950NoneWSW196,562792824
12:45 AM58563951NoneWSW206,562792824
12:30 AM57564051NoneWSW216,562792824
12:15 AM57553850NoneWSW206,562792824
12:00 AM54553855NoneW136,562792824
11:45 PM54543855NoneWSW106,562792824
11:30 PM52543858NoneWSW106,562793824
11:15 PM55563852NoneWSW96,562793824
11:00 PM52553861NoneW66,562793824
10:45 PM51544068NoneSW56,562793824
10:30 PM50534274NoneWSW66,562793824
10:15 PM54583955NoneWNW36,562793824
10:00 PM56583953NoneNNW36,562793824
09:45 PM55574261NoneWNW26,562793824
09:30 PM55594161NoneWNW46,562793824
09:15 PM56584465NoneWSW106,562793824
09:00 PM55604365NoneWSW136,562793824
08:45 PM51584682NoneSW116,562793824
08:30 PM51584682NoneSW146,562793824
08:15 PM51584682NoneSW146,562793824
08:00 PM51584682NoneSW146,562793826
07:45 PM51604787Light RainWSW106,562794806
07:30 PM50614789Light RainSSW66,562793816
07:15 PM50614788Light RainNE66,562794816
07:00 PM52634682NoneNE76,562794824
06:45 PM53654575NoneENE76,562793824
06:30 PM53674574NoneNE86,562793824
06:15 PM53684575NoneNE56,562793824
06:00 PM53654573NoneNE106,562793824
05:45 PM53654573NoneNE56,562793824
05:30 PM53644573NoneNE106,562793824
05:15 PM53664676NoneNE66,562793796
05:00 PM53644678NoneNE76,562792756
04:45 PM52644680NoneNE36,562792736
04:30 PM52644680Light RainE36,562793726
04:15 PM52644782NoneW46,562793716
04:00 PM51634580Light RainSW96,562793666
03:45 PM53664371NoneN136,562793824
03:30 PM56694668NoneNNE116,562793824
03:15 PM59825174NoneNE56,562793824
03:00 PM58815074NoneWSW66,562793766
02:45 PM56795287NoneW56,562793706
02:30 PM55674980Light RainWNW46,562793676
02:15 PM57724769Light RainNE36,562793824
02:00 PM58754665Light RainNE66,562793824
01:45 PM58784459NoneSW46,562794824
01:30 PM57774463NoneS76,562794824
01:15 PM56784771NoneSE76,562794796
01:00 PM55724981NoneSE66,562794746
12:45 PM54714982Light RainESE26,562794716
12:30 PM54674780Light RainSE56,562794696
12:15 PM53674985Light RainSSE46,562794706
12:00 PM54694984Medium RainENE66,562794825
11:45 AM54724983NoneNE106,562794824
11:30 AM55754979NoneNE106,562794824
11:15 AM56764980Light RainNE76,562794824
11:00 AM56804774NoneNE66,562794824
10:45 AM56824876NoneNE56,562794824
10:30 AM56784876NoneNE56,562794824
10:15 AM56794876NoneNE46,562795824
10:00 AM55784777NoneNE56,562795824
09:45 AM55744880NoneNE26,562794824
09:30 AM54754778NoneENE46,562794824
09:15 AM54724881NoneNE46,562794824
09:00 AM53684883NoneNE46,562794824
08:45 AM53664989NoneNE46,562794824
08:30 AM52654989NoneENE36,562794824
08:15 AM53644884NoneN06,562794824
08:00 AM52634784NoneSW36,562794824
07:45 AM52624785NoneSSW26,562794824
07:30 AM51604786NoneW46,562794824
07:15 AM51594788NoneW26,562794824
07:00 AM50584788NoneS26,562794824
06:45 AM49584689NoneW26,562794824
06:30 AM49574689NoneWSW26,562794824
06:15 AM49564690NoneS26,562794824
06:00 AM49554689NoneS26,562794824
05:45 AM49554688NoneNW26,562794825
05:30 AM50564688NoneN06,562794825
05:15 AM49564791NoneN06,562794816
05:00 AM49544689NoneSSW26,562794816
04:45 AM49544690NoneS46,562794816
04:30 AM50554688NoneN06,562794806
04:15 AM50554685NoneN06,562794806
04:00 AM51564683NoneSW26,562794796
03:45 AM51564685NoneSSE26,562794796
03:30 AM51564685NoneSW26,562794786

Masonville

Current Conditions

Time06/19/2019 02:45 AM MST
Location40.4875,-105.2108
Elevation5,387 FT
Air Temp56°F
Dew Point Temp43°F
Relative Humidity61%
Visibility6,562 FT
Pressure832 MB
PrecipitationNone

Click a photo to enlarge.

36°3 mph
Wind from @ 3 mph

Past 24 Hours

All Data

Previous 24h observations for Masonville
Time Air Temp
(°F)
Surface
(°F)
Dew Point
(°F)
Relative
Humidity
Precip. Wind Direction Wind Speed (mph) Visibility (ft) Pressure
(mb)
02:45 AM56324361NoneNE36,562832
12:45 AM52544474NoneWNW26,562833
12:30 AM51544479NoneN06,562833
12:15 AM53554371NoneNE26,562833
12:00 AM53554471NoneENE26,562833
11:45 PM52554474NoneENE36,562833
11:30 PM53564573NoneSSW26,562833
11:15 PM53574573NoneNNW46,562833
11:00 PM53564575NoneNNW16,562833
10:45 PM53574676NoneNNW36,562834
10:30 PM53574881NoneN36,562834
10:15 PM53584985NoneN16,562834
10:00 PM53585088NoneNNW26,562834
09:45 PM54585089NoneNNW46,562834
09:30 PM55585188NoneNNW26,562834
09:15 PM55595188NoneN06,562834
09:00 PM56615287NoneN06,562833
08:45 PM56615288NoneNNE26,562833
08:30 PM56625288NoneESE36,562834
08:00 PM56625284NoneSSE76,562834
07:30 PM58635280NoneS36,562834
07:00 PM57635077Heavy RainNNE60834
06:45 PM60664969NoneNNW56,562834
06:30 PM60684967NoneNE46,562834
06:15 PM60684866NoneENE36,562833
06:00 PM60694763NoneNNE36,562833
05:45 PM60704865NoneENE26,562834
05:31 PM60325068NoneN06,562834
05:15 PM58715176NoneSSW36,562834
05:00 PM57665182NoneN06,562833
04:45 PM57655284NoneSSE26,562833
04:30 PM57654873NoneNE46,562833
04:15 PM57674975NoneSSW26,562834
04:00 PM56664975NoneNNE26,562833
03:45 PM56674874NoneWNW66,562834
03:30 PM53664778Light RainNNE86,562834
03:15 PM58594970Heavy RainWNW96,562835
03:00 PM65775159NoneN66,562834
02:45 PM64865163NoneESE36,562834
02:30 PM62835269NoneS36,562833
02:15 PM60715173NoneNW36,562834
02:00 PM60695482Light RainNW26,562834
01:45 PM59695382Light RainE36,562834
01:30 PM58685383NoneNNW26,562835
01:15 PM58685384NoneE16,562835
01:00 PM58665383Light RainSSE26,562835
12:45 PM58665383Light RainS56,562835
12:30 PM59685380NoneS56,562835
12:00 PM59715380Light RainS36,562835
11:45 AM60695378Light RainSSE36,562835
11:30 AM60715378Light RainS46,562835
11:15 AM60715274Light RainSSE56,562835
11:00 AM62755269Light RainSSW66,562835
10:45 AM62325269NoneS56,562835
10:30 AM62825271NoneS66,562835
10:15 AM61785273NoneS36,562835
10:00 AM60775275NoneS46,562835
09:30 AM60735275NoneSSE66,562835
09:15 AM60735276NoneS26,562835
09:00 AM60695173NoneSSE36,562835
08:45 AM60675173NoneSE26,562835
08:30 AM59675174NoneN06,562835
08:15 AM59655175NoneN06,562835
08:00 AM58645075NoneN06,562835
07:45 AM58635179NoneENE16,562835
07:30 AM58625076NoneN06,562835
07:15 AM57615180NoneNE16,562835
07:00 AM56595183NoneNE16,562835
06:45 AM55605085NoneWNW26,562835
06:32 AM54595086NoneSSE16,562835
06:15 AM53604986NoneN06,562835
06:00 AM53594987NoneE26,562835
05:45 AM52594988NoneNW26,562835
05:30 AM51584889NoneNNW16,562835
05:15 AM52574887NoneNW46,562835
05:00 AM52574888NoneN16,562835
04:45 AM52584988NoneN16,562835
04:30 AM53574987NoneN06,562835
04:15 AM53584987NoneSE26,562835
04:00 AM54604981NoneW16,562835
03:45 AM53594986NoneENE26,562835
03:30 AM54584983NoneN06,562835

Time to refresh Minute(s) Second(s)